Sierra Vista, AZ

9:03 PM MST on April 26, 2018 (GMT -0700)
Sierra Vista Municipal-Libby Army Air Field

Weather History for KFHU - August, 2014

Change the Weather History Date:

Friday, August 22, 2014

  Actual Average Record
Temperature  
Mean Temperature 68 °F -  
Max Temperature 75 °F 87 °F 95 °F (1986)
Min Temperature 62 °F 68 °F 57 °F (1983)
Cooling Degree Days 4    
Growing Degree Days 18 (Base 50)    
Moisture  
Dew Point 60 °F    
Average Humidity 75    
Maximum Humidity 94    
Minimum Humidity 53    
Precipitation  
Precipitation 0.59 in - - ()
Sea Level Pressure  
Sea Level Pressure 30.03 in    
Wind  
Wind Speed 5 mph (South)    
Max Wind Speed 12 mph    
Max Gust Speed 23 mph    
Visibility 10 miles    
Events Rain    
Averages and records for this station are not official NWS values.
T = Trace of Precipitation, MM = Missing Value Source: NWS Daily Summary

Daily Weather History Graph

Daily Weather History Graph

Search for Another Location

Airport or City:

Astronomy

Aug. 22, 2014 Rise Set
Actual Time 5:50 AM MST 6:56 PM MST
Civil Twilight 5:25 AM MST 7:22 PM MST
Nautical Twilight 4:55 AM MST 7:51 PM MST
Astronomical Twilight 4:24 AM MST 8:22 PM MST
Moon 3:21 AM MST (8/22) 5:04 PM MST (8/22)
Length of Visible Light 13h 56m
Length of Day
13h 05m
Waning Crescent, 7% of the Moon is Illuminated
Aug 22
Waning Crescent
Aug 25
New
Sep 2
First Quarter
Sep 8
Full
Sep 15
Last Quarter

Hourly Weather History & Observations

Time (MST) Temp. Dew Point Humidity Pressure Visibility Wind Dir Wind Speed Gust Speed Precip Events Conditions
12:55 AM 64.4 °F 57.2 °F 77% 29.99 in 10.0 mi West 6.9 mph - N/A   Mostly Cloudy
1:55 AM 64.4 °F 57.2 °F 77% 30.01 in 10.0 mi WNW 9.2 mph - N/A   Mostly Cloudy
2:26 AM 64.4 °F 57.2 °F 77% 30.14 in 10.0 mi West 3.5 mph - N/A Rain Light Rain Showers
2:42 AM 64.4 °F 57.2 °F 77% 30.15 in 10.0 mi Variable 2.3 mph - N/A   Mostly Cloudy
2:55 AM 64.4 °F 59.0 °F 83% 30.01 in 10.0 mi WSW 5.8 mph - N/A   Overcast
3:55 AM 64.4 °F 60.8 °F 88% 30.00 in 10.0 mi SW 3.5 mph - N/A   Mostly Cloudy
4:55 AM 64.4 °F 60.8 °F 88% 30.00 in 10.0 mi Calm Calm - N/A   Scattered Clouds
5:55 AM 62.6 °F 57.2 °F 82% 30.02 in 10.0 mi West 6.9 mph - N/A   Mostly Cloudy
6:55 AM 64.4 °F 57.2 °F 77% 30.04 in 10.0 mi WSW 3.5 mph - N/A   Mostly Cloudy
7:55 AM 68.0 °F 57.2 °F 68% 30.04 in 10.0 mi Calm Calm - N/A   Scattered Clouds
8:55 AM 71.6 °F 57.2 °F 60% 30.03 in 10.0 mi Calm Calm - N/A   Scattered Clouds
9:55 AM 75.2 °F 57.2 °F 53% 30.03 in 10.0 mi SSE 3.5 mph - N/A   Scattered Clouds
10:55 AM 73.4 °F 57.2 °F 57% 30.03 in 10.0 mi East 3.5 mph - N/A   Mostly Cloudy
11:55 AM 75.2 °F 57.2 °F 53% 30.02 in 10.0 mi Calm Calm - N/A   Mostly Cloudy
12:55 PM 75.2 °F 57.2 °F 53% 30.00 in 10.0 mi Calm Calm - N/A   Mostly Cloudy
1:44 PM 75.2 °F 60.8 °F 61% 30.15 in 10.0 mi NNE 8.1 mph - N/A Rain Light Rain Showers
1:55 PM 73.4 °F 60.8 °F 65% 29.99 in 9.0 mi ENE 4.6 mph - N/A Rain Light Rain Showers
2:55 PM 68.0 °F 66.2 °F 94% 30.00 in 10.0 mi ESE 10.4 mph - N/A   Mostly Cloudy
3:55 PM 71.6 °F 64.4 °F 78% 29.98 in 10.0 mi SSE 8.1 mph - N/A   Mostly Cloudy
4:00 PM 69.8 °F 64.4 °F 83% 30.13 in 10.0 mi SSE 8.1 mph - N/A Rain Light Rain Showers
4:15 PM 66.2 °F 60.8 °F 83% 30.13 in 10.0 mi SE 9.2 mph 23.0 mph N/A   Mostly Cloudy
4:55 PM 71.6 °F 66.2 °F 83% 29.98 in 10.0 mi SSE 10.4 mph - N/A   Mostly Cloudy
5:55 PM 73.4 °F 64.4 °F 73% 29.97 in 10.0 mi SSE 9.2 mph - N/A   Scattered Clouds
6:55 PM 71.6 °F 64.4 °F 78% 29.97 in 10.0 mi NNE 11.5 mph - N/A   Mostly Cloudy
7:55 PM 69.8 °F 64.4 °F 83% 29.98 in 10.0 mi South 3.5 mph - N/A   Scattered Clouds
8:55 PM 68.0 °F 64.4 °F 88% 29.99 in 10.0 mi South 3.5 mph - N/A   Partly Cloudy
9:55 PM 68.0 °F 62.6 °F 83% 29.99 in 10.0 mi Calm Calm - N/A   Partly Cloudy
10:55 PM 66.2 °F 60.8 °F 83% 30.00 in 10.0 mi SE 3.5 mph - N/A   Partly Cloudy
11:56 PM 66.0 °F 60.1 °F 81% 29.99 in 10.0 mi SSW 6.9 mph - N/A   Clear